Location: Stuttgart
(48.7824°N, 9.1964°E)
Time: 02:49:34
(UTC+01:00)

ISS - Pass Details

Date: 24 January 2019
Orbit: 403 x 411 km, 51.6° (Epoch: 17 February)

Event Time Altitude Azimuth Distance (km) Brightness Sun altitude
Rises 19:17:37 0° 233° (SW) 2,327 1.0 -21.2°
Reaches altitude 10° 19:19:43 10° 229° (SW) 1,471 -0.3 -21.5°
Enters shadow 19:22:03 38° 203° (SSW) 637 -2.7 -21.9°
